Location: Unspecified
(0.0000°N, 0.0000°E)
Time: 18:45:56
(UTC+00:00)

COSMOS 2498 - Pass Details

Date: 25 May 2026
Orbit: 1476 x 1512 km, 82.4° (Epoch: 10 June)

Event Time Altitude Azimuth Distance (km) Brightness Sun altitude
Rises 03:33:46 0° 2° (N) 4,581 ? -33.1°
Reaches altitude 10° 03:36:39 10° 5° (N) 3,606 ? -32.5°
Maximum altitude 03:45:14 68° 87° (E) 1,577 ? -30.5°
Drops below altitude 10° 03:53:54 10° 168° (SSE) 3,639 ? -28.5°
Sets 03:56:49 0° 171° (S) 4,626 ? -27.9°
